Weather History for Storm Lake, IA

Change the Weather History Date:

Thursday, May 22, 2014

  Actual Average Record
Temperature  
Mean Temperature 64 °F -  
Max Temperature 77 °F 70 °F 89 °F (2000)
Min Temperature 51 °F 50 °F 42 °F (2001)
Degree Days  
Heating Degree Days 1    
Growing Degree Days 14 (Base 50)    
Moisture  
Dew Point 41 °F    
Average Humidity 47    
Maximum Humidity 76    
Minimum Humidity 22    
Precipitation  
Precipitation 0.00 in - - ()
Sea Level Pressure  
Sea Level Pressure 30.18 in    
Wind  
Wind Speed 10 mph (ENE)    
Max Wind Speed 15 mph    
Max Gust Speed 18 mph    
Visibility 10 miles    
Events      
Averages and records for this station are not official NWS values.
T = Trace of Precipitation, MM = Missing Value Source: NWS Daily Summary

Daily Weather History Graph

Daily Weather History Graph

Search for Another Location

Airport:

Trip Planner

Search our weather history database for the weather conditions in past years. The results will help you decide how hot, cold, wet, or windy it might be!

Date:

Astronomy

May. 22, 2014 Rise Set
Actual Time 5:52 AM CDT 8:43 PM CDT
Civil Twilight 5:19 AM CDT 9:16 PM CDT
Nautical Twilight 4:37 AM CDT 9:58 PM CDT
Astronomical Twilight 3:48 AM CDT 10:47 PM CDT
Moon 2:20 AM CDT (5/22) 2:24 PM CDT (5/22)
Length of Visible Light 15h 57m
Length of Day
14h 51m
Last Quarter, 37% of the Moon is Illuminated
May 22
Last Quarter
May 28
New
Jun 5
First Quarter
Jun 12
Full
Jun 19
Last Quarter

Hourly Weather History & Observations

Time (CDT) Temp. Dew Point Humidity Pressure Visibility Wind Dir Wind Speed Gust Speed Precip Events Conditions
12:15 AM 60.8 °F 42.8 °F 52% 30.13 in 10.0 mi NE 12.7 mph 18.4 mph N/A   Clear
12:35 AM 60.8 °F 42.8 °F 52% 30.14 in 10.0 mi NE 12.7 mph - N/A   Clear
1:15 AM 59.0 °F 42.8 °F 55% 30.14 in 10.0 mi NE 15.0 mph - N/A   Clear
1:35 AM 57.2 °F 42.8 °F 59% 30.15 in 10.0 mi NE 11.5 mph - N/A   Clear
1:55 AM 57.2 °F 44.6 °F 63% 30.15 in 10.0 mi NE 13.8 mph - N/A   Clear
2:15 AM 57.2 °F 44.6 °F 63% 30.14 in 10.0 mi NE 10.4 mph - N/A   Clear
2:35 AM 57.2 °F 44.6 °F 63% 30.14 in 10.0 mi NE 11.5 mph - N/A   Clear
2:55 AM 55.4 °F 44.6 °F 67% 30.15 in 10.0 mi NE 10.4 mph - N/A   Clear
3:15 AM 55.4 °F 44.6 °F 67% 30.15 in 10.0 mi NE 11.5 mph - N/A   Clear
3:35 AM 55.4 °F 44.6 °F 67% 30.14 in 10.0 mi NE 12.7 mph - N/A   Clear
3:55 AM 55.4 °F 44.6 °F 67% 30.14 in 10.0 mi NE 13.8 mph - N/A   Clear
4:15 AM 55.4 °F 44.6 °F 67% 30.15 in 10.0 mi ENE 10.4 mph - N/A   Clear
4:35 AM 55.4 °F 44.6 °F 67% 30.15 in 10.0 mi ENE 10.4 mph - N/A   Clear
4:55 AM 55.4 °F 44.6 °F 67% 30.16 in 10.0 mi ENE 10.4 mph - N/A   Clear
5:15 AM 55.4 °F 44.6 °F 67% 30.15 in 10.0 mi ENE 12.7 mph - N/A   Clear
5:35 AM 53.6 °F 44.6 °F 72% 30.16 in 10.0 mi ENE 13.8 mph - N/A   Clear
5:55 AM 53.6 °F 44.6 °F 72% 30.17 in 10.0 mi ENE 9.2 mph - N/A   Clear
6:15 AM 53.6 °F 44.6 °F 72% 30.18 in 10.0 mi ENE 9.2 mph - N/A   Clear
6:35 AM 53.6 °F 44.6 °F 72% 30.21 in 10.0 mi SE 5.8 mph - N/A   Clear
6:55 AM 51.8 °F 44.6 °F 76% 30.22 in 10.0 mi SE 4.6 mph - N/A   Clear
7:15 AM 53.6 °F 44.6 °F 72% 30.22 in 10.0 mi East 5.8 mph - N/A   Partly Cloudy
7:35 AM 53.6 °F 44.6 °F 72% 30.22 in 10.0 mi East 9.2 mph - N/A   Scattered Clouds
7:55 AM 55.4 °F 44.6 °F 67% 30.22 in 10.0 mi East 9.2 mph - N/A   Mostly Cloudy
8:15 AM 55.4 °F 44.6 °F 67% 30.24 in 10.0 mi SE 5.8 mph 11.5 mph N/A   Mostly Cloudy
8:35 AM 55.4 °F 44.6 °F 67% 30.25 in 10.0 mi SSE 8.1 mph - N/A   Scattered Clouds
8:55 AM 57.2 °F 44.6 °F 63% 30.24 in 10.0 mi SSE 6.9 mph - N/A   Partly Cloudy
9:15 AM 57.2 °F 44.6 °F 63% 30.24 in 10.0 mi SSE 8.1 mph - N/A   Partly Cloudy
9:35 AM 59.0 °F 44.6 °F 59% 30.24 in 10.0 mi SSE 6.9 mph - N/A   Clear
9:55 AM 59.0 °F 44.6 °F 59% 30.23 in 10.0 mi SSE 6.9 mph - N/A   Clear
10:15 AM 60.8 °F 44.6 °F 55% 30.23 in 10.0 mi SE 8.1 mph - N/A   Clear
10:35 AM 62.6 °F 42.8 °F 48% 30.23 in 10.0 mi ESE 9.2 mph - N/A   Clear
10:55 AM 62.6 °F 42.8 °F 48% 30.22 in 10.0 mi SE 8.1 mph - N/A   Clear
11:15 AM 64.4 °F 41.0 °F 42% 30.21 in 10.0 mi ESE 10.4 mph 17.3 mph N/A   Clear
11:35 AM 66.2 °F 41.0 °F 40% 30.21 in 10.0 mi East 11.5 mph 17.3 mph N/A   Clear
11:55 AM 66.2 °F 41.0 °F 40% 30.20 in 10.0 mi ENE 13.8 mph - N/A   Clear
12:15 PM 66.2 °F 41.0 °F 40% 30.19 in 10.0 mi NE 13.8 mph - N/A   Clear
12:55 PM 69.8 °F 39.2 °F 33% 30.20 in 10.0 mi ENE 6.9 mph 15.0 mph N/A   Clear
1:15 PM 69.8 °F 39.2 °F 33% 30.20 in 10.0 mi Variable 6.9 mph 12.7 mph N/A   Clear
1:35 PM 69.8 °F 39.2 °F 33% 30.20 in 10.0 mi Variable 6.9 mph 13.8 mph N/A   Clear
2:15 PM 71.6 °F 37.4 °F 29% 30.19 in 10.0 mi ENE 10.4 mph - N/A   Clear
2:35 PM 73.4 °F 35.6 °F 25% 30.19 in 10.0 mi Variable 5.8 mph 12.7 mph N/A   Clear
2:55 PM 73.4 °F 37.4 °F 27% 30.18 in 10.0 mi ENE 9.2 mph 15.0 mph N/A   Clear
3:15 PM 73.4 °F 37.4 °F 27% 30.18 in 10.0 mi Variable 5.8 mph 13.8 mph N/A   Clear
4:15 PM 75.2 °F 37.4 °F 25% 30.16 in 10.0 mi Calm Calm 15.0 mph N/A   Clear
4:35 PM 75.2 °F 37.4 °F 25% 30.16 in 10.0 mi Variable 4.6 mph 12.7 mph N/A   Clear
5:00 PM 77.0 °F 35.6 °F 22% 30.16 in 10.0 mi NNW 6.9 mph - N/A   Clear
5:15 PM 77.0 °F 35.6 °F 22% 30.15 in 10.0 mi NNE 6.9 mph - N/A   Clear
5:35 PM 77.0 °F 35.6 °F 22% 30.15 in 10.0 mi NE 9.2 mph - N/A   Clear
5:55 PM 77.0 °F 35.6 °F 22% 30.14 in 10.0 mi NE 6.9 mph - N/A   Clear
6:15 PM 75.2 °F 35.6 °F 24% 30.14 in 10.0 mi Variable 4.6 mph 13.8 mph N/A   Clear
6:35 PM 77.0 °F 35.6 °F 22% 30.14 in 10.0 mi ENE 5.8 mph - N/A   Clear
6:55 PM 75.2 °F 37.4 °F 25% 30.13 in 10.0 mi NE 5.8 mph - N/A   Clear
7:15 PM 75.2 °F 35.6 °F 24% 30.13 in 10.0 mi Variable 3.5 mph - N/A   Clear
7:35 PM 75.2 °F 35.6 °F 24% 30.13 in 10.0 mi ENE 6.9 mph - N/A   Clear
7:55 PM 73.4 °F 37.4 °F 27% 30.13 in 10.0 mi NE 8.1 mph - N/A   Clear
8:15 PM 71.6 °F 39.2 °F 31% 30.14 in 10.0 mi NE 6.9 mph - N/A   Clear
8:35 PM 69.8 °F 41.0 °F 35% 30.14 in 10.0 mi ENE 6.9 mph - N/A   Clear
8:55 PM 68.0 °F 39.2 °F 35% 30.15 in 10.0 mi ENE 6.9 mph - N/A   Clear
9:15 PM 68.0 °F 41.0 °F 37% 30.16 in 10.0 mi ENE 6.9 mph - N/A   Clear
9:35 PM 68.0 °F 41.0 °F 37% 30.17 in 10.0 mi NE 6.9 mph - N/A   Clear
9:55 PM 68.0 °F 37.4 °F 33% 30.17 in 10.0 mi NE 5.8 mph - N/A   Clear
10:15 PM 66.2 °F 39.2 °F 37% 30.17 in 10.0 mi ENE 6.9 mph - N/A   Clear
10:35 PM 64.4 °F 39.2 °F 40% 30.18 in 10.0 mi ENE 8.1 mph - N/A   Clear
10:55 PM 64.4 °F 37.4 °F 37% 30.18 in 10.0 mi ENE 9.2 mph - N/A   Clear
11:15 PM 62.6 °F 35.6 °F 37% 30.19 in 10.0 mi ENE 9.2 mph - N/A   Clear
11:35 PM 62.6 °F 33.8 °F 34% 30.18 in 10.0 mi ENE 9.2 mph - N/A   Clear
11:55 PM 62.6 °F 33.8 °F 34% 30.19 in 10.0 mi ENE 10.4 mph - N/A   Clear